Year,Month,Day,Hour,Minute,Value (Times are PST for temperature in C)
2011,05,03,00,00,7.50
2011,05,03,00,01,7.50
2011,05,03,00,02,7.50
2011,05,03,00,03,7.50
2011,05,03,00,04,7.50
2011,05,03,00,05,7.50
2011,05,03,00,06,7.50
2011,05,03,00,07,7.50
2011,05,03,00,08,7.50
2011,05,03,00,09,7.50
2011,05,03,00,10,7.60
2011,05,03,00,11,7.60
2011,05,03,00,12,7.50
2011,05,03,00,13,7.50
2011,05,03,00,14,7.50
2011,05,03,00,15,7.50
2011,05,03,00,16,7.40
2011,05,03,00,17,7.40
2011,05,03,00,18,7.40
2011,05,03,00,19,7.40
2011,05,03,00,20,7.40
2011,05,03,00,21,7.40
2011,05,03,00,22,7.40
2011,05,03,00,23,7.40
2011,05,03,00,24,7.40
2011,05,03,00,25,7.40
2011,05,03,00,26,7.40
2011,05,03,00,27,7.40
2011,05,03,00,28,7.40
2011,05,03,00,29,7.40
2011,05,03,00,30,7.40
2011,05,03,00,31,7.40
2011,05,03,00,32,7.40
2011,05,03,00,33,7.40
2011,05,03,00,34,7.40
2011,05,03,00,35,7.40
2011,05,03,00,36,7.40
2011,05,03,00,37,7.40
2011,05,03,00,38,7.40
2011,05,03,00,39,7.40
2011,05,03,00,40,7.50
2011,05,03,00,41,7.50
2011,05,03,00,42,7.50
2011,05,03,00,43,7.60
2011,05,03,00,44,7.60
2011,05,03,00,45,7.60
2011,05,03,00,46,7.60
2011,05,03,00,47,7.60
2011,05,03,00,48,7.60
2011,05,03,00,49,7.60
2011,05,03,00,50,7.60
2011,05,03,00,51,7.70
2011,05,03,00,52,7.70
2011,05,03,00,53,7.70
2011,05,03,00,54,7.70
2011,05,03,00,55,7.60
2011,05,03,00,56,7.70
2011,05,03,00,57,7.70
2011,05,03,00,58,7.70
2011,05,03,00,59,7.70
2011,05,03,01,00,7.70
2011,05,03,01,01,7.70
2011,05,03,01,02,7.70
2011,05,03,01,03,7.70
2011,05,03,01,04,7.70
2011,05,03,01,05,7.70
2011,05,03,01,06,7.70
2011,05,03,01,07,7.70
2011,05,03,01,08,7.70
2011,05,03,01,09,7.70
2011,05,03,01,10,7.70
2011,05,03,01,11,7.70
2011,05,03,01,12,7.70
2011,05,03,01,13,7.70
2011,05,03,01,14,7.60
2011,05,03,01,15,7.70
2011,05,03,01,16,7.70
2011,05,03,01,17,7.70
2011,05,03,01,18,7.70
2011,05,03,01,19,7.70
2011,05,03,01,20,7.70
2011,05,03,01,21,7.70
2011,05,03,01,22,7.70
2011,05,03,01,23,7.60
2011,05,03,01,24,7.60
2011,05,03,01,25,7.60
2011,05,03,01,26,7.70
2011,05,03,01,27,7.70
2011,05,03,01,28,7.70
2011,05,03,01,29,7.70
2011,05,03,01,30,7.70
2011,05,03,01,31,7.70
2011,05,03,01,32,7.70
2011,05,03,01,33,7.60
2011,05,03,01,34,7.60
2011,05,03,01,35,7.60
2011,05,03,01,36,7.70
2011,05,03,01,37,7.70
2011,05,03,01,38,7.70
2011,05,03,01,39,7.70
2011,05,03,01,40,7.70
2011,05,03,01,41,7.60
2011,05,03,01,42,7.60
2011,05,03,01,43,7.60
2011,05,03,01,44,7.60
2011,05,03,01,45,7.60
2011,05,03,01,46,7.60
2011,05,03,01,47,7.60
2011,05,03,01,48,7.60
2011,05,03,01,49,7.60
2011,05,03,01,50,7.60
2011,05,03,01,51,7.60
2011,05,03,01,52,7.60
2011,05,03,01,53,7.60
2011,05,03,01,54,7.60
2011,05,03,01,55,7.60
2011,05,03,01,56,7.50
2011,05,03,01,57,7.50
2011,05,03,01,58,7.50
2011,05,03,01,59,7.50
2011,05,03,02,00,7.50
2011,05,03,02,01,7.50
2011,05,03,02,02,7.60
2011,05,03,02,03,7.60
2011,05,03,02,04,7.60
2011,05,03,02,05,7.60
2011,05,03,02,06,7.60
2011,05,03,02,07,7.60
2011,05,03,02,08,7.60
2011,05,03,02,09,7.60
2011,05,03,02,10,7.60
2011,05,03,02,11,7.60
2011,05,03,02,12,7.60
2011,05,03,02,13,7.60
2011,05,03,02,14,7.60
2011,05,03,02,15,7.60
2011,05,03,02,16,7.70
2011,05,03,02,17,7.70
2011,05,03,02,18,7.70
2011,05,03,02,19,7.70
2011,05,03,02,20,7.70
2011,05,03,02,21,7.80
2011,05,03,02,22,7.70
2011,05,03,02,23,7.80
2011,05,03,02,24,7.70
2011,05,03,02,25,7.70
2011,05,03,02,26,7.80
2011,05,03,02,27,7.70
2011,05,03,02,28,7.70
2011,05,03,02,29,7.70
2011,05,03,02,30,7.60
2011,05,03,02,31,7.60
2011,05,03,02,32,7.60
2011,05,03,02,33,7.60
2011,05,03,02,34,7.60
2011,05,03,02,35,7.60
2011,05,03,02,36,7.70
2011,05,03,02,37,7.70
2011,05,03,02,38,7.70
2011,05,03,02,39,7.70
2011,05,03,02,40,7.70
2011,05,03,02,41,7.70
2011,05,03,02,42,7.70
2011,05,03,02,43,7.70
2011,05,03,02,44,7.70
2011,05,03,02,45,7.70
2011,05,03,02,46,7.70
2011,05,03,02,47,7.70
2011,05,03,02,48,7.70
2011,05,03,02,49,7.70
2011,05,03,02,50,7.70
2011,05,03,02,51,7.60
2011,05,03,02,52,7.60
2011,05,03,02,53,7.60
2011,05,03,02,54,7.60
2011,05,03,02,55,7.60
2011,05,03,02,56,7.60
2011,05,03,02,57,7.60
2011,05,03,02,58,7.60
2011,05,03,02,59,7.60
2011,05,03,03,00,7.60
2011,05,03,03,01,7.60
2011,05,03,03,02,7.60
2011,05,03,03,03,7.60
2011,05,03,03,04,7.60
2011,05,03,03,05,7.60
2011,05,03,03,06,7.60
2011,05,03,03,07,7.60
2011,05,03,03,08,7.50
2011,05,03,03,09,7.50
2011,05,03,03,10,7.50
2011,05,03,03,11,7.40
2011,05,03,03,12,7.40
2011,05,03,03,13,7.40
2011,05,03,03,14,7.50
2011,05,03,03,15,7.50
2011,05,03,03,16,7.50
2011,05,03,03,17,7.50
2011,05,03,03,18,7.50
2011,05,03,03,19,7.40
2011,05,03,03,20,7.40
2011,05,03,03,21,7.40
2011,05,03,03,22,7.40
2011,05,03,03,23,7.40
2011,05,03,03,24,7.40
2011,05,03,03,25,7.40
2011,05,03,03,26,7.40
2011,05,03,03,27,7.40
2011,05,03,03,28,7.30
2011,05,03,03,29,7.30
2011,05,03,03,30,7.30
2011,05,03,03,31,7.30
2011,05,03,03,32,7.30
2011,05,03,03,33,7.30
2011,05,03,03,34,7.40
2011,05,03,03,35,7.40
2011,05,03,03,36,7.40
2011,05,03,03,37,7.40
2011,05,03,03,38,7.40
2011,05,03,03,39,7.50
2011,05,03,03,40,7.50
2011,05,03,03,41,7.50
2011,05,03,03,42,7.40
2011,05,03,03,43,7.50
2011,05,03,03,44,7.50
2011,05,03,03,45,7.50
2011,05,03,03,46,7.50
2011,05,03,03,47,7.40
2011,05,03,03,48,7.40
2011,05,03,03,49,7.40
2011,05,03,03,50,7.40
2011,05,03,03,51,7.40
2011,05,03,03,52,7.40
2011,05,03,03,53,7.40
2011,05,03,03,54,7.40
2011,05,03,03,55,7.40
2011,05,03,03,56,7.40
2011,05,03,03,57,7.40
2011,05,03,03,58,7.40
2011,05,03,03,59,7.40
2011,05,03,04,00,7.40
2011,05,03,04,01,7.40
2011,05,03,04,02,7.40
2011,05,03,04,03,7.40
2011,05,03,04,04,7.40
2011,05,03,04,05,7.40
2011,05,03,04,06,7.40
2011,05,03,04,07,7.40
2011,05,03,04,08,7.40
2011,05,03,04,09,7.40
2011,05,03,04,10,7.40
2011,05,03,04,11,7.40
2011,05,03,04,12,7.40
2011,05,03,04,13,7.40
2011,05,03,04,14,7.40
2011,05,03,04,15,7.40
2011,05,03,04,16,7.40
2011,05,03,04,17,7.40
2011,05,03,04,18,7.40
2011,05,03,04,19,7.40
2011,05,03,04,20,7.40
2011,05,03,04,21,7.40
2011,05,03,04,22,7.40
2011,05,03,04,23,7.30
2011,05,03,04,24,7.30
2011,05,03,04,25,7.30
2011,05,03,04,26,7.30
2011,05,03,04,27,7.30
2011,05,03,04,28,7.30
2011,05,03,04,29,7.30
2011,05,03,04,30,7.30
2011,05,03,04,31,7.30
2011,05,03,04,32,7.30
2011,05,03,04,33,7.30
2011,05,03,04,34,7.20
2011,05,03,04,35,7.20
2011,05,03,04,36,7.20
2011,05,03,04,37,7.20
2011,05,03,04,38,7.20
2011,05,03,04,39,7.30
2011,05,03,04,40,7.30
2011,05,03,04,41,7.30
2011,05,03,04,42,7.30
2011,05,03,04,43,7.30
2011,05,03,04,44,7.30
2011,05,03,04,45,7.30
2011,05,03,04,46,7.30
2011,05,03,04,47,7.30
2011,05,03,04,48,7.30
2011,05,03,04,49,7.30
2011,05,03,04,50,7.40
2011,05,03,04,51,7.30
2011,05,03,04,52,7.30
2011,05,03,04,53,7.30
2011,05,03,04,54,7.30
2011,05,03,04,55,7.30
2011,05,03,04,56,7.30
2011,05,03,04,57,7.30
2011,05,03,04,58,7.40
2011,05,03,04,59,7.40
2011,05,03,05,00,7.40
2011,05,03,05,01,7.40
2011,05,03,05,02,7.40
2011,05,03,05,03,7.40
2011,05,03,05,04,7.40
2011,05,03,05,05,7.40
2011,05,03,05,06,7.40
2011,05,03,05,07,7.40
2011,05,03,05,08,7.40
2011,05,03,05,09,7.40
2011,05,03,05,10,7.40
2011,05,03,05,11,7.40
2011,05,03,05,12,7.40
2011,05,03,05,13,7.50
2011,05,03,05,14,7.50
2011,05,03,05,15,7.50
2011,05,03,05,16,7.50
2011,05,03,05,17,7.50
2011,05,03,05,18,7.50
2011,05,03,05,19,7.50
2011,05,03,05,20,7.50
2011,05,03,05,21,7.40
2011,05,03,05,22,7.40
2011,05,03,05,23,7.40
2011,05,03,05,24,7.40
2011,05,03,05,25,7.40
2011,05,03,05,26,7.40
2011,05,03,05,27,7.40
2011,05,03,05,28,7.40
2011,05,03,05,29,7.40
2011,05,03,05,30,7.40
2011,05,03,05,31,7.40
2011,05,03,05,32,7.40
2011,05,03,05,33,7.40
2011,05,03,05,34,7.40
2011,05,03,05,35,7.30
2011,05,03,05,36,7.30
2011,05,03,05,37,7.30
2011,05,03,05,38,7.30
2011,05,03,05,39,7.40
2011,05,03,05,40,7.40
2011,05,03,05,41,7.40
2011,05,03,05,42,7.40
2011,05,03,05,43,7.40
2011,05,03,05,44,7.30
2011,05,03,05,45,7.30
2011,05,03,05,46,7.30
2011,05,03,05,47,7.30
2011,05,03,05,48,7.30
2011,05,03,05,49,7.30
2011,05,03,05,50,7.30
2011,05,03,05,51,7.30
2011,05,03,05,52,7.30
2011,05,03,05,53,7.30
2011,05,03,05,54,7.30
2011,05,03,05,55,7.30
2011,05,03,05,56,7.30
2011,05,03,05,57,7.30
2011,05,03,05,58,7.30
2011,05,03,05,59,7.30
2011,05,03,06,00,7.30
2011,05,03,06,01,7.30
2011,05,03,06,02,7.30
2011,05,03,06,03,7.30
2011,05,03,06,04,7.30
2011,05,03,06,05,7.30
2011,05,03,06,06,7.30
2011,05,03,06,07,7.30
2011,05,03,06,08,7.30
2011,05,03,06,09,7.30
2011,05,03,06,10,7.30
2011,05,03,06,11,7.30
2011,05,03,06,12,7.30
2011,05,03,06,13,7.30
2011,05,03,06,14,7.40
2011,05,03,06,15,7.40
2011,05,03,06,16,7.40
2011,05,03,06,17,7.40
2011,05,03,06,18,7.40
2011,05,03,06,19,7.40
2011,05,03,06,20,7.40
2011,05,03,06,21,7.40
2011,05,03,06,22,7.40
2011,05,03,06,23,7.40
2011,05,03,06,24,7.40
2011,05,03,06,25,7.40
2011,05,03,06,26,7.40
2011,05,03,06,27,7.40
2011,05,03,06,28,7.40
2011,05,03,06,29,7.30
2011,05,03,06,30,7.40
2011,05,03,06,31,7.30
2011,05,03,06,32,7.40
2011,05,03,06,33,7.40
2011,05,03,06,34,7.40
2011,05,03,06,35,7.40
2011,05,03,06,36,7.40
2011,05,03,06,37,7.40
2011,05,03,06,38,7.40
2011,05,03,06,39,7.40
2011,05,03,06,40,7.50
2011,05,03,06,41,7.50
2011,05,03,06,42,7.50
2011,05,03,06,43,7.50
2011,05,03,06,44,7.50
2011,05,03,06,45,7.50
2011,05,03,06,46,7.50
2011,05,03,06,47,7.60
2011,05,03,06,48,7.60
2011,05,03,06,49,7.60
2011,05,03,06,50,7.60
2011,05,03,06,51,7.60
2011,05,03,06,52,7.60
2011,05,03,06,53,7.60
2011,05,03,06,54,7.60
2011,05,03,06,55,7.60
2011,05,03,06,56,7.60
2011,05,03,06,57,7.60
2011,05,03,06,58,7.60
2011,05,03,06,59,7.60
2011,05,03,07,00,7.60
2011,05,03,07,01,7.60
2011,05,03,07,02,7.60
2011,05,03,07,03,7.60
2011,05,03,07,04,7.60
2011,05,03,07,05,7.60
2011,05,03,07,06,7.60
2011,05,03,07,07,7.70
2011,05,03,07,08,7.70
2011,05,03,07,09,7.70
2011,05,03,07,10,7.70
2011,05,03,07,11,7.70
2011,05,03,07,12,7.70
2011,05,03,07,13,7.70
2011,05,03,07,14,7.70
2011,05,03,07,15,7.70
2011,05,03,07,16,7.70
2011,05,03,07,17,7.70
2011,05,03,07,18,7.70
2011,05,03,07,19,7.70
2011,05,03,07,20,7.70
2011,05,03,07,21,7.70
2011,05,03,07,22,7.70
2011,05,03,07,23,7.70
2011,05,03,07,24,7.70
2011,05,03,07,25,7.70
2011,05,03,07,26,7.70
2011,05,03,07,27,7.70
2011,05,03,07,28,7.70
2011,05,03,07,29,7.70
2011,05,03,07,30,7.80
2011,05,03,07,31,7.70
2011,05,03,07,32,7.70
2011,05,03,07,33,7.70
2011,05,03,07,34,7.70
2011,05,03,07,35,7.70
2011,05,03,07,36,7.70
2011,05,03,07,37,7.70
2011,05,03,07,38,7.70
2011,05,03,07,39,7.70
2011,05,03,07,40,7.70
2011,05,03,07,41,7.70
2011,05,03,07,42,7.70
2011,05,03,07,43,7.70
2011,05,03,07,44,7.70
2011,05,03,07,45,7.70
2011,05,03,07,46,7.70
2011,05,03,07,47,7.70
2011,05,03,07,48,7.70
2011,05,03,07,49,7.70
2011,05,03,07,50,7.70
2011,05,03,07,51,7.80
2011,05,03,07,52,7.80
2011,05,03,07,53,7.80
2011,05,03,07,54,7.90
2011,05,03,07,55,8.00
2011,05,03,07,56,8.00
2011,05,03,07,57,8.10
2011,05,03,07,58,8.20
2011,05,03,07,59,8.30
2011,05,03,08,00,8.40
2011,05,03,08,01,8.50
2011,05,03,08,02,8.60
2011,05,03,08,03,8.70
2011,05,03,08,04,8.70
2011,05,03,08,05,8.80
2011,05,03,08,06,8.90
2011,05,03,08,07,9.00
2011,05,03,08,08,9.00
2011,05,03,08,09,9.10
2011,05,03,08,10,9.20
2011,05,03,08,11,9.20
2011,05,03,08,12,9.30
2011,05,03,08,13,9.30
2011,05,03,08,14,9.40
2011,05,03,08,15,9.50
2011,05,03,08,16,9.60
2011,05,03,08,17,9.70
2011,05,03,08,18,9.70
2011,05,03,08,19,9.80
2011,05,03,08,20,9.90
2011,05,03,08,21,10.00
2011,05,03,08,22,10.10
2011,05,03,08,23,10.20
2011,05,03,08,24,10.20
2011,05,03,08,25,10.30
2011,05,03,08,26,10.40
2011,05,03,08,27,10.40
2011,05,03,08,28,10.50
2011,05,03,08,29,10.50
2011,05,03,08,30,10.60
2011,05,03,08,31,10.70
2011,05,03,08,32,10.70
2011,05,03,08,33,10.70
2011,05,03,08,34,10.70
2011,05,03,08,35,10.70
2011,05,03,08,36,10.70
2011,05,03,08,37,10.80
2011,05,03,08,38,10.80
2011,05,03,08,39,10.90
2011,05,03,08,40,10.90
2011,05,03,08,41,10.90
2011,05,03,08,42,10.80
2011,05,03,08,43,10.80
2011,05,03,08,44,10.80
2011,05,03,08,45,10.70
2011,05,03,08,46,10.80
2011,05,03,08,47,10.80
2011,05,03,08,48,10.90
2011,05,03,08,49,11.00
2011,05,03,08,50,11.10
2011,05,03,08,51,11.20
2011,05,03,08,52,11.20
2011,05,03,08,53,11.10
2011,05,03,08,54,11.10
2011,05,03,08,55,10.90
2011,05,03,08,56,10.70
2011,05,03,08,57,10.60
2011,05,03,08,58,10.50
2011,05,03,08,59,10.40
2011,05,03,09,00,10.40
2011,05,03,09,01,10.30
2011,05,03,09,02,10.30
2011,05,03,09,03,10.30
2011,05,03,09,04,10.40
2011,05,03,09,05,10.50
2011,05,03,09,06,10.70
2011,05,03,09,07,10.80
2011,05,03,09,08,10.80
2011,05,03,09,09,10.80
2011,05,03,09,10,10.90
2011,05,03,09,11,10.90
2011,05,03,09,12,11.00
2011,05,03,09,13,11.00
2011,05,03,09,14,11.10
2011,05,03,09,15,11.10
2011,05,03,09,16,11.10
2011,05,03,09,17,11.10
2011,05,03,09,18,11.00
2011,05,03,09,19,11.00
2011,05,03,09,20,11.00
2011,05,03,09,21,11.00
2011,05,03,09,22,10.90
2011,05,03,09,23,10.80
2011,05,03,09,24,10.80
2011,05,03,09,25,10.90
2011,05,03,09,26,10.90
2011,05,03,09,27,10.90
2011,05,03,09,28,10.80
2011,05,03,09,29,10.80
2011,05,03,09,30,10.80
2011,05,03,09,31,10.90
2011,05,03,09,32,11.00
2011,05,03,09,33,11.00
2011,05,03,09,34,11.00
2011,05,03,09,35,11.00
2011,05,03,09,36,11.10
2011,05,03,09,37,11.20
2011,05,03,09,38,11.20
2011,05,03,09,39,11.00
2011,05,03,09,40,10.90
2011,05,03,09,41,10.90
2011,05,03,09,42,10.80
2011,05,03,09,43,10.80
2011,05,03,09,44,10.80
2011,05,03,09,45,10.70
2011,05,03,09,46,10.60
2011,05,03,09,47,10.60
2011,05,03,09,48,10.50
2011,05,03,09,49,10.50
2011,05,03,09,50,10.40
2011,05,03,09,51,10.50
2011,05,03,09,52,10.50
2011,05,03,09,53,10.60
2011,05,03,09,54,10.50
2011,05,03,09,55,10.50
2011,05,03,09,56,10.50
2011,05,03,09,57,10.50
2011,05,03,09,58,10.40
2011,05,03,09,59,10.40
2011,05,03,10,00,10.50
2011,05,03,10,01,10.60
2011,05,03,10,02,10.70
2011,05,03,10,03,10.80
2011,05,03,10,04,10.90
2011,05,03,10,05,11.00
2011,05,03,10,06,11.10
2011,05,03,10,07,11.10
2011,05,03,10,08,11.10
2011,05,03,10,09,11.10
2011,05,03,10,10,11.10
2011,05,03,10,11,11.10
2011,05,03,10,12,11.00
2011,05,03,10,13,11.00
2011,05,03,10,14,10.90
2011,05,03,10,15,10.90
2011,05,03,10,16,10.90
2011,05,03,10,17,10.80
2011,05,03,10,18,10.80
2011,05,03,10,19,10.80
2011,05,03,10,20,10.80
2011,05,03,10,21,10.80
2011,05,03,10,22,10.80
2011,05,03,10,23,10.80
2011,05,03,10,24,10.80
2011,05,03,10,25,10.80
2011,05,03,10,26,10.80
2011,05,03,10,27,10.80
2011,05,03,10,28,10.70
2011,05,03,10,29,10.70
2011,05,03,10,30,10.70
2011,05,03,10,31,10.70
2011,05,03,10,32,10.70
2011,05,03,10,33,10.80
2011,05,03,10,34,11.00
2011,05,03,10,35,11.10
2011,05,03,10,36,11.10
2011,05,03,10,37,11.20
2011,05,03,10,38,11.20
2011,05,03,10,39,11.20
2011,05,03,10,40,11.20
2011,05,03,10,41,11.20
2011,05,03,10,42,11.20
2011,05,03,10,43,11.20
2011,05,03,10,44,11.00
2011,05,03,10,45,10.90
2011,05,03,10,46,10.80
2011,05,03,10,47,10.80
2011,05,03,10,48,10.80
2011,05,03,10,49,10.80
2011,05,03,10,50,10.80
2011,05,03,10,51,10.80
2011,05,03,10,52,10.90
2011,05,03,10,53,11.00
2011,05,03,10,54,11.00
2011,05,03,10,55,10.90
2011,05,03,10,56,10.90
2011,05,03,10,57,10.80
2011,05,03,10,58,10.80
2011,05,03,10,59,10.80
2011,05,03,11,00,10.90
2011,05,03,11,01,10.90
2011,05,03,11,02,10.90
2011,05,03,11,03,10.80
2011,05,03,11,04,10.90
2011,05,03,11,05,11.00
2011,05,03,11,06,11.10
2011,05,03,11,07,11.20
2011,05,03,11,08,11.20
2011,05,03,11,09,11.20
2011,05,03,11,10,11.20
2011,05,03,11,11,11.20
2011,05,03,11,12,11.20
2011,05,03,11,13,11.30
2011,05,03,11,14,11.40
2011,05,03,11,15,11.50
2011,05,03,11,16,11.60
2011,05,03,11,17,11.70
2011,05,03,11,18,11.60
2011,05,03,11,19,11.50
2011,05,03,11,20,11.30
2011,05,03,11,21,11.20
2011,05,03,11,22,11.20
2011,05,03,11,23,11.20
2011,05,03,11,24,11.10
2011,05,03,11,25,11.10
2011,05,03,11,26,11.00
2011,05,03,11,27,10.90
2011,05,03,11,28,10.80
2011,05,03,11,29,10.80
2011,05,03,11,30,10.80
2011,05,03,11,31,10.70
2011,05,03,11,32,10.70
2011,05,03,11,33,10.70
2011,05,03,11,34,10.70
2011,05,03,11,35,10.70
2011,05,03,11,36,10.70
2011,05,03,11,37,10.70
2011,05,03,11,38,10.70
2011,05,03,11,39,10.80
2011,05,03,11,40,10.80
2011,05,03,11,41,10.90
2011,05,03,11,42,11.00
2011,05,03,11,43,11.10
2011,05,03,11,44,11.10
2011,05,03,11,45,11.10
2011,05,03,11,46,11.10
2011,05,03,11,47,11.10
2011,05,03,11,48,11.20
2011,05,03,11,49,11.20
2011,05,03,11,50,11.20
2011,05,03,11,51,11.20
2011,05,03,11,52,11.20
2011,05,03,11,53,11.10
2011,05,03,11,54,11.10
2011,05,03,11,55,11.10
2011,05,03,11,56,11.00
2011,05,03,11,57,11.00
2011,05,03,11,58,10.90
2011,05,03,11,59,10.90
2011,05,03,12,00,10.90
2011,05,03,12,01,10.90
2011,05,03,12,02,10.90
2011,05,03,12,03,10.80
2011,05,03,12,04,10.80
2011,05,03,12,05,10.80
2011,05,03,12,06,10.80
2011,05,03,12,07,10.90
2011,05,03,12,08,10.90
2011,05,03,12,09,10.90
2011,05,03,12,10,10.80
2011,05,03,12,11,10.80
2011,05,03,12,12,10.80
2011,05,03,12,13,10.80
2011,05,03,12,14,10.80
2011,05,03,12,15,10.80
2011,05,03,12,16,10.80
2011,05,03,12,17,10.80
2011,05,03,12,18,10.80
2011,05,03,12,19,10.80
2011,05,03,12,20,10.80
2011,05,03,12,21,10.80
2011,05,03,12,22,10.80
2011,05,03,12,23,10.90
2011,05,03,12,24,10.90
2011,05,03,12,25,10.90
2011,05,03,12,26,10.90
2011,05,03,12,27,11.00
2011,05,03,12,28,11.00
2011,05,03,12,29,11.10
2011,05,03,12,30,11.10
2011,05,03,12,31,11.10
2011,05,03,12,32,11.10
2011,05,03,12,33,11.10
2011,05,03,12,34,11.10
2011,05,03,12,35,11.00
2011,05,03,12,36,11.00
2011,05,03,12,37,11.00
2011,05,03,12,38,10.90
2011,05,03,12,39,10.80
2011,05,03,12,40,10.80
2011,05,03,12,41,10.80
2011,05,03,12,42,10.80
2011,05,03,12,43,10.80
2011,05,03,12,44,10.80
2011,05,03,12,45,10.80
2011,05,03,12,46,10.80
2011,05,03,12,47,10.70
2011,05,03,12,48,10.60
2011,05,03,12,49,10.50
2011,05,03,12,50,10.40
2011,05,03,12,51,10.30
2011,05,03,12,52,10.30
2011,05,03,12,53,10.20
2011,05,03,12,54,10.20
2011,05,03,12,55,10.20
2011,05,03,12,56,10.20
2011,05,03,12,57,10.10
2011,05,03,12,58,10.10
2011,05,03,12,59,10.10
2011,05,03,13,00,10.10
2011,05,03,13,01,10.10
2011,05,03,13,02,10.10
2011,05,03,13,03,10.10
2011,05,03,13,04,10.10
2011,05,03,13,05,10.10
2011,05,03,13,06,10.10
2011,05,03,13,07,10.10
2011,05,03,13,08,10.10
2011,05,03,13,09,10.10
2011,05,03,13,10,10.10
2011,05,03,13,11,10.10
2011,05,03,13,12,10.10
2011,05,03,13,13,10.10
2011,05,03,13,14,10.20
2011,05,03,13,15,10.30
2011,05,03,13,16,10.30
2011,05,03,13,17,10.30
2011,05,03,13,18,10.30
2011,05,03,13,19,10.30
2011,05,03,13,20,10.30
2011,05,03,13,21,10.30
2011,05,03,13,22,10.30
2011,05,03,13,23,10.30
2011,05,03,13,24,10.30
2011,05,03,13,25,10.40
2011,05,03,13,26,10.40
2011,05,03,13,27,10.40
2011,05,03,13,28,10.50
2011,05,03,13,29,10.50
2011,05,03,13,30,10.50
2011,05,03,13,31,10.60
2011,05,03,13,32,10.60
2011,05,03,13,33,10.50
2011,05,03,13,34,10.50
2011,05,03,13,35,10.50
2011,05,03,13,36,10.50
2011,05,03,13,37,10.40
2011,05,03,13,38,10.50
2011,05,03,13,39,10.50
2011,05,03,13,40,10.60
2011,05,03,13,41,10.60
2011,05,03,13,42,10.70
2011,05,03,13,43,10.70
2011,05,03,13,44,10.80
2011,05,03,13,45,10.80
2011,05,03,13,46,10.80
2011,05,03,13,47,10.90
2011,05,03,13,48,10.90
2011,05,03,13,49,11.00
2011,05,03,13,50,11.00
2011,05,03,13,51,11.00
2011,05,03,13,52,11.10
2011,05,03,13,53,11.20
2011,05,03,13,54,11.20
2011,05,03,13,55,11.30
2011,05,03,13,56,11.30
2011,05,03,13,57,11.30
2011,05,03,13,58,11.40
2011,05,03,13,59,11.50
2011,05,03,14,00,11.50
2011,05,03,14,01,11.60
2011,05,03,14,02,11.60
2011,05,03,14,03,11.70
2011,05,03,14,04,11.70
2011,05,03,14,05,11.80
2011,05,03,14,06,11.90
2011,05,03,14,07,12.00
2011,05,03,14,08,12.10
2011,05,03,14,09,12.20
2011,05,03,14,10,12.30
2011,05,03,14,11,12.20
2011,05,03,14,12,12.30
2011,05,03,14,13,12.30
2011,05,03,14,14,12.30
2011,05,03,14,15,12.40
2011,05,03,14,16,12.40
2011,05,03,14,17,12.30
2011,05,03,14,18,12.30
2011,05,03,14,19,12.30
2011,05,03,14,20,12.40
2011,05,03,14,21,12.50
2011,05,03,14,22,12.50
2011,05,03,14,23,12.50
2011,05,03,14,24,12.50
2011,05,03,14,25,12.30
2011,05,03,14,26,12.20
2011,05,03,14,27,12.20
2011,05,03,14,28,12.10
2011,05,03,14,29,12.10
2011,05,03,14,30,12.00
2011,05,03,14,31,12.00
2011,05,03,14,32,12.00
2011,05,03,14,33,12.10
2011,05,03,14,34,12.20
2011,05,03,14,35,12.20
2011,05,03,14,36,12.20
2011,05,03,14,37,12.20
2011,05,03,14,38,12.20
2011,05,03,14,39,12.30
2011,05,03,14,40,12.30
2011,05,03,14,41,12.40
2011,05,03,14,42,12.40
2011,05,03,14,43,12.40
2011,05,03,14,44,12.30
2011,05,03,14,45,12.30
2011,05,03,14,46,12.30
2011,05,03,14,47,12.40
2011,05,03,14,48,12.40
2011,05,03,14,49,12.50
2011,05,03,14,50,12.60
2011,05,03,14,51,12.70
2011,05,03,14,52,12.70
2011,05,03,14,53,12.70
2011,05,03,14,54,12.80
2011,05,03,14,55,12.80
2011,05,03,14,56,12.80
2011,05,03,14,57,12.80
2011,05,03,14,58,12.80
2011,05,03,14,59,12.80
2011,05,03,15,00,12.80
2011,05,03,15,01,12.80
2011,05,03,15,02,12.80
2011,05,03,15,03,12.80
2011,05,03,15,04,12.70
2011,05,03,15,05,12.70
2011,05,03,15,06,12.70
2011,05,03,15,07,12.70
2011,05,03,15,08,12.80
2011,05,03,15,09,12.80
2011,05,03,15,10,12.90
2011,05,03,15,11,12.90
2011,05,03,15,12,12.90
2011,05,03,15,13,13.00
2011,05,03,15,14,13.10
2011,05,03,15,15,13.10
2011,05,03,15,16,13.20
2011,05,03,15,17,13.20
2011,05,03,15,18,13.20
2011,05,03,15,19,13.20
2011,05,03,15,20,13.20
2011,05,03,15,21,13.20
2011,05,03,15,22,13.20
2011,05,03,15,23,13.10
2011,05,03,15,24,13.10
2011,05,03,15,25,13.10
2011,05,03,15,26,13.10
2011,05,03,15,27,13.10
2011,05,03,15,28,13.10
2011,05,03,15,29,13.10
2011,05,03,15,30,13.20
2011,05,03,15,31,13.20
2011,05,03,15,32,13.20
2011,05,03,15,33,13.20
2011,05,03,15,34,13.20
2011,05,03,15,35,13.30
2011,05,03,15,36,13.30
2011,05,03,15,37,13.40
2011,05,03,15,38,13.40
2011,05,03,15,39,13.40
2011,05,03,15,40,13.40
2011,05,03,15,41,13.50
2011,05,03,15,42,13.50
2011,05,03,15,43,13.30
2011,05,03,15,44,13.30
2011,05,03,15,45,13.20
2011,05,03,15,46,13.30
2011,05,03,15,47,13.30
2011,05,03,15,48,13.30
2011,05,03,15,49,13.40
2011,05,03,15,50,13.40
2011,05,03,15,51,13.40
2011,05,03,15,52,13.40
2011,05,03,15,53,13.50
2011,05,03,15,54,13.50
2011,05,03,15,55,13.50
2011,05,03,15,56,13.40
2011,05,03,15,57,13.40
2011,05,03,15,58,13.30
2011,05,03,15,59,13.30
2011,05,03,16,00,13.30
2011,05,03,16,01,13.30
2011,05,03,16,02,13.20
2011,05,03,16,03,13.20
2011,05,03,16,04,13.10
2011,05,03,16,05,13.10
2011,05,03,16,06,13.10
2011,05,03,16,07,13.10
2011,05,03,16,08,13.20
2011,05,03,16,09,13.20
2011,05,03,16,10,13.20
2011,05,03,16,11,13.30
2011,05,03,16,12,13.30
2011,05,03,16,13,13.40
2011,05,03,16,14,13.50
2011,05,03,16,15,13.60
2011,05,03,16,16,13.70
2011,05,03,16,17,13.80
2011,05,03,16,18,13.90
2011,05,03,16,19,14.00
2011,05,03,16,20,14.00
2011,05,03,16,21,13.90
2011,05,03,16,22,13.70
2011,05,03,16,23,13.60
2011,05,03,16,24,13.50
2011,05,03,16,25,13.40
2011,05,03,16,26,13.10
2011,05,03,16,27,12.90
2011,05,03,16,28,12.70
2011,05,03,16,29,12.60
2011,05,03,16,30,12.50
2011,05,03,16,31,12.40
2011,05,03,16,32,12.40
2011,05,03,16,33,12.30
2011,05,03,16,34,12.30
2011,05,03,16,35,12.30
2011,05,03,16,36,12.30
2011,05,03,16,37,12.40
2011,05,03,16,38,12.50
2011,05,03,16,39,12.60
2011,05,03,16,40,12.70
2011,05,03,16,41,12.80
2011,05,03,16,42,12.80
2011,05,03,16,43,12.90
2011,05,03,16,44,12.90
2011,05,03,16,45,12.90
2011,05,03,16,46,13.00
2011,05,03,16,47,13.00
2011,05,03,16,48,13.00
2011,05,03,16,49,12.90
2011,05,03,16,50,12.80
2011,05,03,16,51,12.80
2011,05,03,16,52,12.70
2011,05,03,16,53,12.70
2011,05,03,16,54,12.70
2011,05,03,16,55,12.70
2011,05,03,16,56,12.70
2011,05,03,16,57,12.60
2011,05,03,16,58,12.60
2011,05,03,16,59,12.50
2011,05,03,17,00,12.40
2011,05,03,17,01,12.40
2011,05,03,17,02,12.40
2011,05,03,17,03,12.40
2011,05,03,17,04,12.50
2011,05,03,17,05,12.50
2011,05,03,17,06,12.60
2011,05,03,17,07,12.60
2011,05,03,17,08,12.60
2011,05,03,17,09,12.60
2011,05,03,17,10,12.60
2011,05,03,17,11,12.60
2011,05,03,17,12,12.50
2011,05,03,17,13,12.60
2011,05,03,17,14,12.60
2011,05,03,17,15,12.60
2011,05,03,17,16,12.50
2011,05,03,17,17,12.50
2011,05,03,17,18,12.40
2011,05,03,17,19,12.30
2011,05,03,17,20,12.30
2011,05,03,17,21,12.20
2011,05,03,17,22,12.20
2011,05,03,17,23,12.20
2011,05,03,17,24,12.20
2011,05,03,17,25,12.20
2011,05,03,17,26,12.20
2011,05,03,17,27,12.20
2011,05,03,17,28,12.20
2011,05,03,17,29,12.30
2011,05,03,17,30,12.20
2011,05,03,17,31,12.20
2011,05,03,17,32,12.10
2011,05,03,17,33,12.10
2011,05,03,17,34,12.10
2011,05,03,17,35,12.10
2011,05,03,17,36,12.20
2011,05,03,17,37,12.20
2011,05,03,17,38,12.30
2011,05,03,17,39,12.30
2011,05,03,17,40,12.30
2011,05,03,17,41,12.20